RH
35 40 38 38 41 37 39 40 40 39 38 37 35 35 37 38 43 44 48 54 57 54 54 65 70 70 72 77 74 67 72 73 71 68 63 66 71 77 75 78 83 83 77 75
34 38 35 33 36 39 42 42 41 38 37 37 33 31 32 34 39 42 46 51 55 54 49 61 70 70 68 73 71 75 75 74 69 69 63 61 64 70 78 79 86 79 77 76
38 41 33 33 36 38 40 42 41 39 35 37 28 34 33 35 37 39 43 47 48 48 45 56 66 66 66 65 70 74 76 78 70 70 61 61 59 62 73 81 84 79 75 76
38 33 33 34 38 35 38 39 40 38 36 37 30 31 36 32 35 39 41 44 45 47 42 50 62 61 64 65 66 75 76 77 71 68 65 68 70 75 80 82 82 80 74 72
35 29 31 37 41 34 41 35 35 38 38 33 38 28 34 34 37 37 36 39 43 47 43 45 54 59 62 62 63 71 73 77 74 61 64 69 71 78 73 74 71 70 65 64
42 34 33 40 35 35 33 32 34 32 35 32 37 29 30 32 34 36 35 38 41 48 46 44 48 52 54 57 60 66 71 65 60 62 63 66 71 72 72 68 65 62 57 58
33 34 32 30 33 33 32 35 33 33 39 33 36 33 30 31 32 33 35 37 40 47 45 45 42 47 51 49 55 57 57 61 63 65 68 70 73 74 69 71 62 56 57 53
30 33 26 26 28 36 38 37 33 35 31 32 35 35 31 30 32 33 36 40 39 40 42 44 41 46 48 51 54 58 61 63 67 67 66 70 75 68 64 58 50 46 38 32
25 25 29 25 25 27 31 31 35 33 29 33 36 36 29 31 32 34 34 38 39 39 40 41 41 42 46 49 54 60 69 69 65 65 65 65 57 52 50 42 33 28 25 21
20 20 17 16 15 20 24 35 36 32 33 36 28 30 28 27 32 32 35 36 39 40 40 41 39 40 44 48 54 63 66 63 60 61 63 56 47 43 36 29 24 20 15 13
16 14 20 15 19 23 21 26 27 30 30 28 24 21 22 22 29 32 34 36 38 42 41 40 39 43 42 46 53 58 61 59 57 61 59 49 43 37 32 28 21 16 15 12
14 16 17 17 18 16 19 27 33 34 35 31 28 25 23 21 25 29 33 38 38 41 43 40 40 40 42 46 52 57 58 65 64 58 57 44 41 34 29 24 21 18 14 18
14 14 17 18 16 15 14 16 17 25 27 29 26 24 24 19 20 24 34 36 38 41 42 41 40 41 45 48 51 59 62 65 62 52 46 40 34 35 27 25 24 20 18 17
15 15 17 18 19 19 19 15 16 21 27 26 26 23 22 24 24 24 33 37 40 41 42 42 41 43 48 48 51 56 59 59 52 49 41 36 35 34 31 30 30 29 27 26
18 18 21 20 20 18 19 20 17 20 28 23 21 21 20 25 24 26 35 39 43 45 46 45 43 44 47 50 55 58 57 55 52 51 43 36 34 31 31 32 34 36 36 37
20 23 19 18 20 18 19 19 20 21 21 21 22 23 20 21 24 25 30 38 42 44 48 47 47 44 47 49 51 51 53 56 59 63 46 38 39 38 40 44 48 47 47 47
24 23 22 22 23 21 21 19 20 19 21 21 23 22 24 22 23 26 28 32 41 45 47 45 48 44 45 50 48 52 61 66 65 67 49 44 45 47 48 51 52 50 53 56
28 26 26 25 26 24 22 23 21 22 22 23 23 22 23 23 22 26 28 32 39 47 47 48 50 48 50 54 55 60 64 65 69 62 52 48 51 52 55 57 55 55 54 55
27 28 28 29 28 22 23 25 24 24 22 25 24 24 25 22 22 28 30 31 41 49 49 51 53 55 55 59 56 58 65 64 58 51 50 53 56 58 60 62 63 57 55 58
25 24 27 31 32 31 30 34 26 27 25 30 28 28 27 23 28 43 32 36 48 55 57 56 60 61 61 59 57 60 67 60 50 51 53 56 58 61 74 71 61 56 49 47
28 29 28 27 30 34 42 38 33 33 33 36 35 33 31 30 39 42 42 47 52 52 58 62 64 63 64 58 59 66 64 59 57 58 59 65 67 69 70 63 49 42 43 44
35 38 36 35 35 40 40 39 39 45 45 42 39 36 35 36 42 49 51 53 54 56 58 63 62 61 62 59 65 69 65 62 65 68 66 66 66 62 53 44 41 40 38 36
40 37 41 47 48 50 41 42 42 41 42 43 43 40 43 43 45 53 55 55 59 58 58 61 61 67 69 68 66 66 67 70 70 67 67 64 54 51 47 44 41 38 33 33
38 40 40 41 40 38 38 39 38 41 44 46 46 42 44 50 51 53 59 68 70 72 66 67 79 74 78 72 71 74 72 68 67 65 65 60 54 47 44 45 43 41 42 41
44 40 42 41 41 39 40 42 44 48 50 53 56 57 57 60 63 62 60 68 67 74 60 59 62 64 67 68 69 70 63 62 68 69 58 52 49 45 42 40 40 42 40 40
42 43 45 53 48 49 51 50 49 55 58 63 67 71 72 74 72 69 69 68 62 58 60 62 60 63 62 61 68 69 70 63 56 55 51 50 47 44 43 42 45 42 37 37